CAPE
40 16 2 3 4 0 0 0 0 0 0 0 0 0 0 0 0 0 0 0 0 0 0 0 0 0 0 0 0 0 0 0 0 0 0 0 0 0 0 0 0 0 0 0
18 4 0 0 0 2 13 7 0 0 0 0 0 0 0 0 0 0 0 0 0 0 0 0 0 0 0 0 0 0 0 0 0 0 0 0 0 0 0 0 0 0 0 0
0 0 0 0 0 7 2 18 16 8 0 0 0 0 0 0 0 0 0 0 0 0 0 0 0 0 0 0 0 0 0 0 0 0 0 0 0 0 0 0 0 0 0 0
0 0 0 0 0 0 0 3 42 15 0 1 0 0 0 0 0 0 0 0 0 0 0 0 0 0 0 0 0 0 0 0 0 0 0 0 0 0 0 0 0 0 0 0
0 0 0 0 0 0 0 3 14 12 0 0 0 0 0 0 0 0 0 0 0 0 0 0 0 0 0 0 0 0 0 0 0 0 0 0 0 0 0 0 0 0 0 0
0 0 0 0 0 3 0 2 4 0 0 1 0 0 0 0 0 0 0 0 0 0 0 0 0 0 0 0 0 0 0 0 0 0 0 0 0 0 0 0 0 0 0 0
2 3 0 0 14 25 28 21 9 10 3 0 0 0 0 0 0 0 0 0 0 0 0 0 0 0 0 0 0 0 0 0 0 0 0 0 0 0 0 0 0 0 0 0
0 0 4 2 3 1 5 10 0 0 0 0 0 0 0 0 0 0 0 0 0 0 0 0 0 0 0 0 0 0 0 0 0 0 0 0 0 0 0 0 0 0 0 0
0 0 2 4 0 0 1 17 0 0 0 0 0 0 0 0 0 0 0 0 0 0 0 0 0 0 0 0 0 0 0 0 0 0 0 0 0 0 0 0 0 0 0 0
0 0 0 0 12 2 0 0 0 0 0 0 0 0 0 0 0 0 0 0 0 0 0 0 0 0 0 0 0 0 0 0 0 0 0 0 0 0 0 0 0 0 0 0
0 0 0 1 37 1 1 8 0 0 0 0 0 0 0 0 0 0 0 0 0 0 0 0 0 0 0 0 0 0 0 0 0 0 0 0 0 0 0 0 0 12 0 0
0 0 0 0 0 0 6 5 0 2 0 0 0 0 0 0 0 0 0 0 0 0 0 0 0 0 0 0 0 0 0 0 0 0 0 0 0 0 1 7 24 10 6 0
0 0 0 0 0 0 5 3 0 0 0 0 0 0 0 0 0 0 0 0 0 0 0 0 0 0 0 0 0 0 0 0 0 0 0 0 0 0 0 4 1 0 0 0
0 0 0 0 0 0 2 0 0 0 0 0 0 0 0 0 0 0 0 0 0 0 0 0 0 0 0 0 0 0 0 0 0 0 0 0 0 0 0 0 0 0 0 0
0 0 0 0 0 0 0 0 0 1 0 0 0 0 0 0 0 0 0 0 0 0 0 0 0 0 0 0 0 0 0 0 0 0 0 0 0 0 0 0 0 0 0 0
0 0 0 0 0 0 0 0 0 0 0 0 0 0 0 0 0 0 0 0 0 0 0 0 0 0 0 0 0 0 0 0 0 0 0 0 0 0 0 0 0 0 0 0
0 0 0 0 0 0 0 0 0 0 0 0 0 0 0 0 0 0 0 0 0 0 0 0 0 0 0 0 0 0 0 0 0 0 0 0 0 0 0 0 0 0 0 0
0 0 0 0 0 0 0 0 0 0 0 0 0 0 0 0 0 0 0 0 0 0 0 0 0 0 0 0 0 0 0 0 0 0 0 0 0 0 0 0 0 0 0 0
0 0 0 0 0 0 0 0 0 0 0 0 0 0 0 0 0 0 0 0 0 0 0 0 0 0 0 0 0 0 0 0 0 0 0 0 0 0 0 0 0 0 0 0
0 0 0 0 0 0 0 0 0 0 0 0 0 0 0 0 0 0 0 0 0 0 0 0 0 0 0 0 0 0 0 0 0 0 0 0 0 0 0 0 0 0 0 0
0 0 0 0 0 0 0 0 0 0 0 0 0 0 0 0 0 0 0 0 0 0 0 0 0 0 0 0 0 0 0 0 0 0 0 0 0 0 0 0 0 0 0 0
0 0 0 0 0 0 0 0 0 0 0 0 0 0 0 0 0 0 0 0 0 0 0 0 0 0 0 0 0 0 0 0 0 0 0 0 0 0 0 0 0 0 0 0
0 0 0 0 0 0 0 0 0 0 0 0 0 0 0 0 0 0 0 0 0 0 0 0 0 0 0 0 0 0 0 0 0 0 0 0 0 0 0 0 0 0 0 0
0 0 0 0 0 0 0 0 0 0 0 0 0 0 0 0 0 0 0 0 0 0 0 0 0 0 0 0 0 0 0 0 0 0 0 0 0 0 0 0 0 0 0 0
0 0 0 0 0 0 0 0 0 0 0 0 0 0 0 0 0 0 0 0 0 0 0 0 0 0 0 0 0 0 0 0 0 0 0 0 0 0 0 0 0 0 0 0
0 0 0 0 0 0 0 0 0 0 0 0 0 0 0 0 0 0 0 0 0 0 0 0 0 0 0 0 0 0 0 0 0 0 0 0 0 0 0 0 0 0 0 0
CIN
-4 -2 -0 -1 -2 -0 -0 -0 -0 -0 -0 -0 -0 -0 -0 -0 -0 -0 -0 -0 -0 -0 -0 -0 -0 -0 -0 -0 -0 -0 -0 -0 -0 -0 -0 -0 -0 -0 -0 -0 -0 -0 -0 -0
-3 -0 -0 -0 -0 -5 -3 -8 -0 -0 -0 -0 -0 -0 -0 -0 -0 -0 -0 -0 -0 -0 -0 -0 -0 -0 -0 -0 -0 -0 -0 -0 -0 -0 -0 -0 -0 -0 -0 -0 -0 -0 -0 -0
-0 -0 -0 -0 -0 -1 -2 -8 -15 -16 -0 -0 -0 -0 -0 -0 -0 -0 -0 -0 -0 -0 -0 -0 -0 -0 -0 -0 -0 -0 -0 -0 -0 -0 -0 -0 -0 -0 -0 -0 -0 -0 -0 -0
-0 -0 -0 -0 -0 -0 -0 -1 -14 -23 -0 -0 -0 -0 -0 -0 -0 -0 -0 -0 -0 -0 -0 -0 -0 -0 -0 -0 -0 -0 -0 -0 -0 -0 -0 -0 -0 -0 -0 -0 -0 -0 -0 -0
-0 -0 -0 -0 -0 -0 -0 -1 -22 -51 -0 -2 -0 -0 -0 -0 -0 -0 -0 -0 -0 -0 -0 -0 -0 -0 -0 -0 -0 -0 -0 -0 -0 -0 -0 -0 -0 -0 -0 -0 -0 -0 -0 -0
-0 -0 -0 -0 -0 -6 -1 -6 -29 -0 -0 -1 -0 -0 -0 -0 -0 -0 -0 -0 -0 -0 -0 -0 -0 -0 -0 -0 -0 -0 -0 -0 -0 -0 -0 -0 -0 -0 -0 -0 -0 -0 -0 -0
-0 -1 -0 -0 -2 -15 -7 -3 -4 -1 -3 -0 -0 -0 -0 -0 -0 -0 -0 -0 -0 -0 -0 -0 -0 -0 -0 -0 -0 -0 -0 -0 -0 -0 -0 -0 -0 -0 -0 -0 -0 -0 -0 -0
-0 -0 -6 -1 -2 -2 -9 -6 -1 -0 -0 -0 -0 -0 -0 -0 -0 -0 -0 -0 -0 -0 -0 -0 -0 -0 -0 -0 -0 -0 -0 -0 -0 -0 -0 -0 -0 -0 -0 -0 -0 -0 -0 -0
-0 -0 -17 -14 -0 -0 -7 -4 -0 -0 -0 -0 -0 -0 -0 -0 -0 -0 -0 -0 -0 -0 -0 -0 -0 -0 -0 -0 -0 -0 -0 -0 -0 -0 -0 -0 -0 -0 -0 -0 -0 -0 -0 -0
-0 -0 -7 -0 -23 -6 -3 -0 -4 -1 -0 -0 -0 -0 -0 -0 -0 -0 -0 -0 -0 -0 -0 -0 -0 -0 -0 -0 -0 -0 -0 -0 -0 -0 -0 -0 -0 -0 -0 -0 -0 -0 -0 -0
-0 -0 -0 -0 -4 -1 -7 -18 -0 -0 -0 -0 -0 -0 -0 -0 -0 -0 -0 -0 -0 -0 -0 -0 -0 -0 -0 -0 -0 -0 -0 -0 -0 -0 -0 -0 -0 -0 -0 -0 -0 -167 -44 -0
-0 -0 -0 -0 -0 -0 -11 -3 -1 -2 -0 -0 -0 -0 -0 -0 -0 -0 -0 -0 -0 -0 -0 -0 -0 -0 -0 -0 -0 -0 -0 -0 -0 -0 -0 -0 -0 -0 -7 -155 -144 -185 -115 -0
-0 -0 -0 -0 -0 -0 -11 -6 -0 -0 -0 -0 -0 -0 -0 -0 -0 -0 -0 -0 -0 -0 -0 -0 -0 -0 -0 -0 -0 -0 -0 -0 -0 -0 -0 -0 -0 -0 -0 -26 -43 -0 -0 -0
-0 -0 -0 -0 -0 -0 -0 -0 -7 -0 -0 -0 -0 -0 -0 -0 -0 -0 -0 -0 -0 -0 -0 -0 -0 -0 -0 -0 -0 -0 -0 -0 -0 -0 -0 -0 -0 -0 -0 -0 -1 -0 -0 -0
-0 -0 -0 -0 -0 -0 -0 -0 -0 -2 -0 -0 -0 -0 -0 -0 -0 -0 -0 -0 -0 -0 -0 -0 -0 -0 -0 -0 -0 -0 -0 -0 -0 -0 -0 -0 -0 -0 -0 -0 -0 -0 -0 -0
-0 -0 -0 -0 -0 -0 -0 -0 -0 -0 -0 -0 -0 -0 -0 -0 -0 -0 -0 -0 -0 -0 -0 -0 -0 -0 -0 -0 -0 -0 -0 -0 -0 -0 -0 -0 -0 -0 -0 -0 -0 -0 -0 -0
-0 -0 -0 -0 -0 -0 -0 -0 -0 -0 -0 -0 -0 -0 -0 -0 -0 -0 -0 -0 -0 -0 -0 -0 -0 -0 -0 -0 -0 -0 -0 -0 -0 -0 -0 -0 -0 -0 -0 -0 -0 -0 -0 -0
-0 -0 -0 -0 -0 -0 -0 -0 -0 -0 -0 -0 -0 -0 -0 -0 -0 -0 -0 -0 -0 -0 -0 -0 -0 -0 -0 -0 -0 -0 -0 -0 -0 -0 -0 -0 -0 -0 -0 -0 -0 -0 -0 -0
-0 -0 -0 -0 -0 -0 -0 -0 -0 -0 -0 -0 -0 -0 -0 -0 -0 -0 -0 -0 -0 -0 -0 -0 -0 -0 -0 -0 -0 -0 -0 -0 -0 -0 -0 -0 -0 -0 -0 -0 -0 -0 -0 -0
-0 -0 -0 -0 -0 -0 -0 -0 -0 -0 -0 -0 -0 -0 -0 -0 -0 -0 -0 -0 -0 -0 -0 -0 -0 -0 -0 -0 -0 -0 -0 -0 -0 -0 -0 -0 -0 -0 -0 -0 -0 -0 -0 -0
-0 -0 -0 -0 -0 -0 -0 -0 -0 -0 -0 -0 -0 -0 -0 -0 -0 -0 -0 -0 -0 -0 -0 -0 -0 -0 -0 -0 -0 -0 -0 -0 -0 -0 -0 -0 -0 -0 -0 -0 -0 -0 -0 -0
-0 -0 -0 -0 -0 -0 -0 -0 -0 -0 -0 -0 -0 -0 -0 -0 -0 -0 -0 -0 -0 -0 -0 -0 -0 -0 -0 -0 -0 -0 -0 -0 -0 -0 -0 -0 -0 -0 -0 -0 -0 -0 -0 -0
-0 -0 -0 -0 -0 -0 -0 -0 -0 -0 -0 -0 -0 -0 -0 -0 -0 -0 -0 -0 -0 -0 -0 -0 -0 -0 -0 -0 -0 -0 -0 -0 -0 -0 -0 -0 -0 -0 -0 -0 -0 -0 -0 -0
-0 -0 -0 -0 -0 -0 -0 -0 -0 -0 -0 -0 -0 -0 -0 -0 -0 -0 -0 -0 -0 -0 -0 -0 -0 -0 -0 -0 -0 -0 -0 -0 -0 -0 -0 -0 -0 -0 -0 -0 -0 -0 -0 -0
-0 -0 -0 -0 -0 -0 -0 -0 -0 -0 -0 -0 -0 -0 -0 -0 -0 -0 -0 -0 -0 -0 -0 -0 -0 -0 -0 -0 -0 -0 -0 -0 -0 -0 -0 -0 -0 -0 -0 -0 -0 -0 -0 -0
-0 -0 -0 -0 -0 -0 -0 -0 -0 -0 -0 -0 -0 -0 -0 -0 -0 -0 -0 -0 -0 -0 -0 -0 -0 -0 -0 -0 -0 -0 -0 -0 -0 -0 -0 -0 -0 -0 -0 -0 -0 -0 -0 -0
Wind_Speed
28 37 48 43 40 35 32 38 42 37 32 30 39 36 32 34 25 17 12 13 6 10 7 7 11 11 12 10 11 12 13 18 14 9 7 7 8 8 6 5 5 4 4 5
32 51 41 34 38 40 37 38 41 35 30 33 35 41 35 32 30 21 12 9 10 8 8 9 9 12 13 13 13 11 13 13 17 11 8 6 7 7 6 6 6 6 5 5
46 47 34 37 38 44 45 42 37 34 28 31 33 42 40 35 32 26 15 15 11 9 12 13 11 13 13 14 14 13 13 13 13 14 9 7 7 8 8 8 8 8 8 7
47 36 39 43 45 39 46 38 35 34 33 38 29 44 35 31 34 30 25 19 13 10 9 13 14 14 15 16 13 13 12 13 13 12 12 14 13 12 11 11 10 10 10 10
46 41 40 47 50 38 42 30 29 29 33 37 37 39 37 35 35 29 24 19 13 11 11 12 15 15 18 16 16 14 14 14 14 14 13 14 14 13 13 13 13 12 12 13
38 34 34 42 39 36 25 28 30 30 33 49 43 40 42 37 35 29 23 20 12 11 11 11 13 16 14 15 15 15 15 16 16 15 16 16 16 15 16 16 15 16 15 16
39 36 33 31 37 34 34 34 41 45 45 52 35 40 51 28 23 23 22 21 17 13 11 12 12 12 13 15 16 15 17 18 16 17 17 17 18 18 19 19 19 19 18 19
43 44 36 31 41 41 42 39 41 45 45 46 34 43 41 31 31 24 23 19 15 12 16 11 10 11 11 13 16 17 16 17 16 17 18 18 18 19 21 21 21 21 22 21
45 41 34 33 32 35 43 49 33 36 35 39 38 40 38 29 24 23 21 19 20 19 18 20 17 13 11 11 13 16 18 18 18 19 19 19 20 21 22 23 23 23 23 22
34 39 36 32 29 32 39 34 42 38 44 47 42 42 40 32 27 21 19 19 21 20 17 17 18 16 15 14 13 13 16 19 21 22 22 23 23 23 24 25 25 25 25 23
36 37 37 32 40 43 39 47 43 39 37 42 44 44 32 29 24 20 19 15 11 12 13 15 17 17 17 17 17 17 18 18 21 22 24 25 26 26 25 26 26 27 27 25
36 35 42 41 29 35 37 42 40 46 46 39 38 39 24 22 18 10 8 8 8 8 7 12 17 17 17 19 21 22 23 24 26 25 24 25 27 28 27 27 28 29 28 26
38 35 40 40 38 33 43 41 38 35 33 45 43 39 22 14 11 12 11 10 9 10 15 19 20 20 20 22 22 23 23 23 23 24 26 28 29 31 30 29 30 29 28 27
39 38 45 51 47 35 43 43 40 38 42 39 44 36 26 20 17 13 11 12 13 16 18 21 21 21 22 24 25 26 25 24 24 22 23 25 26 27 27 27 28 28 28 27
40 42 39 38 34 37 34 32 33 41 39 40 40 35 24 18 15 13 14 15 17 19 21 21 23 25 26 27 28 27 27 26 25 25 24 24 24 22 22 24 25 26 28 28
41 41 35 38 33 30 34 37 36 38 37 40 33 30 21 17 13 15 17 19 22 22 22 22 24 27 30 30 31 30 29 27 25 25 25 24 23 22 22 22 22 23 23 24
42 37 36 42 32 29 39 37 35 34 33 33 38 29 24 26 27 24 22 22 23 24 24 25 26 27 28 29 29 29 28 25 24 25 25 24 22 21 21 23 24 26 26 26
39 37 34 32 26 41 36 32 33 35 37 36 35 31 26 25 23 23 22 21 20 22 24 25 26 26 27 26 25 24 22 21 21 22 23 24 24 26 26 26 26 27 28 29
37 37 33 32 34 35 41 35 33 32 34 36 37 36 28 26 25 28 23 21 22 21 22 24 24 23 22 22 21 20 20 21 22 23 23 23 23 24 25 26 26 27 26 26
39 37 37 36 39 44 43 30 23 28 49 33 34 35 36 30 34 30 20 18 19 20 19 19 18 18 19 20 19 18 19 20 22 22 22 20 20 20 21 22 23 23 23 24
41 41 44 38 40 45 36 21 14 26 30 24 27 28 27 30 31 22 16 17 14 13 14 13 14 15 17 17 15 16 18 20 22 21 21 22 22 23 22 22 22 23 23 22
39 36 35 35 34 35 20 17 26 24 21 19 15 22 25 23 17 15 14 11 8 8 8 9 11 13 15 15 15 17 19 20 20 21 22 22 22 22 22 21 22 22 22 22
42 42 35 31 33 17 20 19 19 15 16 14 13 16 15 14 14 12 9 6 6 6 6 7 8 10 14 16 17 18 21 21 21 22 23 24 24 24 24 24 23 23 23 23
39 37 34 32 34 29 18 20 17 16 15 11 11 9 11 12 10 9 7 5 3 3 3 4 6 10 13 16 18 19 21 21 21 22 23 24 24 24 24 24 25 25 25 24
37 33 35 36 27 25 19 20 17 14 11 8 8 8 9 10 9 9 7 4 2 3 3 5 7 10 12 15 17 19 20 20 21 21 22 23 24 25 25 25 25 26 25 26
33 39 38 41 28 24 25 16 16 15 11 9 9 10 11 10 10 9 7 4 3 3 3 5 7 8 11 13 16 20 21 20 20 22 23 23 24 25 25 25 26 25 26 27
Wind_Direction
244 239 237 239 242 248 252 251 251 257 260 260 256 262 268 263 278 286 290 289 250 238 231 204 190 189 183 184 181 181 179 182 181 188 194 196 197 194 207 212 215 240 267 290
245 239 242 246 246 245 250 251 252 260 260 257 262 259 265 272 274 278 265 263 285 218 223 207 213 194 192 193 192 196 192 190 191 200 217 226 213 215 221 226 236 249 243 258
241 247 244 243 244 241 243 248 251 254 260 262 265 261 262 271 272 275 268 272 266 247 210 202 202 201 203 199 202 207 206 204 198 200 214 249 250 254 244 249 251 245 241 256
245 249 238 239 240 240 241 247 254 252 256 256 263 261 266 271 269 267 274 273 265 248 232 211 204 202 201 204 214 228 227 223 218 213 217 212 219 226 241 248 257 254 252 258
241 235 236 236 235 236 245 243 251 256 256 259 260 264 268 265 267 272 275 271 257 247 232 222 210 208 204 205 207 217 229 228 223 224 230 234 236 253 266 266 265 262 265 266
248 249 242 239 236 235 243 240 251 257 260 254 255 259 262 263 267 274 281 280 263 233 243 239 221 218 221 212 209 216 227 226 239 237 237 242 244 259 268 269 268 271 272 273
242 240 235 230 229 231 232 234 243 247 250 252 259 256 255 271 274 280 283 286 283 271 262 229 237 235 238 231 220 218 215 217 227 231 234 244 252 258 267 269 271 277 278 281
227 231 225 225 225 229 225 226 239 244 249 254 260 259 264 267 267 276 285 288 294 294 297 275 245 248 239 237 229 223 226 225 232 234 236 242 252 260 265 271 275 277 279 281
227 239 231 232 228 228 230 233 244 252 258 256 257 262 269 272 274 276 276 281 282 289 297 300 299 277 267 258 242 231 230 234 241 241 251 253 256 260 269 271 273 275 277 281
232 234 233 234 230 239 233 227 237 247 250 254 260 261 262 265 269 273 276 280 285 289 297 303 307 307 297 287 275 264 256 250 259 261 264 266 265 263 265 274 271 273 276 277
221 232 232 228 234 231 233 232 240 245 253 256 258 263 268 264 269 273 279 283 290 301 302 308 310 311 310 308 303 293 283 274 272 272 271 272 274 273 271 269 273 274 278 277
228 234 227 231 251 244 237 238 237 243 247 256 263 266 283 277 268 276 281 287 293 302 313 317 318 315 314 317 311 303 296 293 290 289 284 279 279 279 277 275 278 281 279 279
217 229 226 235 243 245 234 236 235 249 253 250 255 263 274 279 269 267 273 282 290 295 296 298 303 306 308 310 313 311 309 307 301 296 292 290 289 287 285 284 286 285 284 283
220 230 228 229 233 235 232 233 233 242 246 253 253 263 265 266 265 262 270 278 287 292 293 296 300 301 303 306 307 309 309 309 310 310 305 302 298 295 293 292 290 292 290 288
223 230 231 244 247 236 230 230 228 238 246 251 259 260 257 252 251 255 267 276 285 290 294 295 297 300 301 303 305 307 307 307 307 308 307 308 309 310 307 302 299 298 296 295
225 230 233 240 237 235 233 234 234 237 239 250 260 261 255 247 253 261 269 276 283 288 292 295 298 301 301 301 302 304 305 305 306 306 306 308 309 311 311 311 311 307 304 301
221 226 229 235 235 237 242 225 220 228 238 235 251 251 258 253 263 263 267 276 283 287 291 296 301 303 305 305 304 306 307 311 310 308 308 309 309 309 309 309 309 307 305 305
217 219 228 235 226 241 255 238 226 238 244 242 249 261 256 257 261 268 270 273 283 290 295 300 303 305 307 311 314 318 322 322 320 316 313 311 309 306 307 307 306 307 307 306
222 219 229 233 232 256 254 251 215 232 233 245 245 250 254 259 264 269 271 278 287 295 300 302 305 309 314 319 323 326 328 327 325 322 319 316 312 309 310 310 311 313 313 314
225 228 230 234 241 249 254 255 242 246 258 243 243 246 249 255 262 266 271 280 290 297 304 310 317 322 322 323 327 330 330 332 331 331 331 331 329 325 322 321 321 321 321 320
221 226 229 236 247 253 253 248 208 236 266 254 228 228 238 245 258 269 272 283 294 305 314 322 328 330 332 335 341 340 340 338 337 339 340 337 333 330 329 328 327 325 325 325
219 221 229 235 241 249 245 212 213 251 264 274 245 236 240 250 255 254 266 272 289 307 325 333 339 341 343 346 350 348 345 343 346 346 345 343 341 341 339 336 334 332 331 329
227 226 225 229 239 265 242 234 227 270 254 267 250 242 235 235 243 235 239 251 281 298 317 337 347 346 342 344 346 346 341 343 344 344 341 340 339 339 337 335 335 333 333 331
233 230 237 244 248 250 248 246 241 258 262 255 257 234 224 228 214 218 232 240 266 284 308 331 336 335 337 340 343 345 345 347 348 346 342 341 341 340 340 340 339 337 335 334
235 232 238 244 250 237 243 239 236 251 257 249 252 245 225 206 217 219 225 222 217 261 292 310 321 328 333 338 341 342 341 345 346 344 342 342 341 340 340 340 339 339 338 335
239 235 236 242 241 245 231 234 238 243 246 234 239 246 243 224 219 221 225 223 222 243 275 304 317 329 334 343 344 340 340 346 345 344 342 342 341 340 341 340 339 340 338 336